Van, Turkey

12:10 PM +03 on March 27, 2017 (GMT +0300)
Van

Weather History for LTCI - January, 2014

Change the Weather History Date:

Sunday, January 26, 2014

  Actual Average Record
Temperature  
Mean Temperature 34 °F -  
Max Temperature 40 °F 36 °F 44 °F (2013)
Min Temperature 29 °F 18 °F 3 °F (2016)
Degree Days  
Heating Degree Days 30    
Moisture  
Dew Point 28 °F    
Average Humidity 77    
Maximum Humidity 93    
Minimum Humidity 57    
Precipitation  
Precipitation 0.00 in 0.04 in - ()
Sea Level Pressure  
Sea Level Pressure 30.02 in    
Wind  
Wind Speed 4 mph ()    
Max Wind Speed 8 mph    
Max Gust Speed -    
Visibility 4.9 miles    
Events      
Averages and records for this station are not official NWS values.
T = Trace of Precipitation, MM = Missing Value Source: Averaged Metar Reports

Daily Weather History Graph

Daily Weather History Graph

Search for Another Location

Airport or City:

Trip Planner

Search our weather history database for the weather conditions in past years. The results will help you decide how hot, cold, wet, or windy it might be!

Date:

Astronomy

Jan. 26, 2014 Rise Set
Actual Time 6:17 AM EET 4:21 PM EET
Civil Twilight 5:48 AM EET 4:50 PM EET
Nautical Twilight 5:16 AM EET 5:22 PM EET
Astronomical Twilight 4:45 AM EET 5:53 PM EET
Moon 1:30 AM EET (1/26) 11:52 AM EET (1/26)
Length of Visible Light 11h 01m
Length of Day
10h 04m
Waning Crescent, 27% of the Moon is Illuminated
Jan 26
Waning Crescent
Jan 30
New
Feb 6
First Quarter
Feb 15
Full
Feb 22
Last Quarter

Hourly Weather History & Observations

Time (EET) Temp. Windchill Dew Point Humidity Pressure Visibility Wind Dir Wind Speed Gust Speed Precip Events Conditions
12:50 AM 33.8 °F 29.6 °F 23.0 °F 65% 30.04 in 6.2 mi Variable 4.6 mph - N/A   Mostly Cloudy
1:50 AM 10.4 °F 0.8 °F 8.6 °F 92% 30.15 in 6.2 mi ENE 5.8 mph - N/A   Mostly Cloudy
2:00 AM 33 °F - 23 °F 57%  in 6 mi SSE 6.9 mph - -   Partly Cloudy
2:50 AM 33.8 °F 29.6 °F 24.8 °F 70% 30.01 in 6.2 mi SSE 4.6 mph - N/A   Mostly Cloudy
3:50 AM 33.8 °F 27.7 °F 24.8 °F 70% 30.01 in 6.2 mi NW 6.9 mph - N/A   Mostly Cloudy
4:50 AM 33.8 °F - 24.8 °F 70% 30.01 in 6.2 mi Variable 2.3 mph - N/A   Mostly Cloudy
5:00 AM 34 °F - 24 °F 57%  in 6 mi ENE 2.3 mph - -   Partly Cloudy
5:50 AM 33.8 °F 28.6 °F 26.6 °F 75% 30.01 in 6.2 mi SSW 5.8 mph - N/A   Mostly Cloudy
6:50 AM 33.8 °F 30.8 °F 28.4 °F 81% 30.04 in 6.2 mi NE 3.5 mph - N/A   Mostly Cloudy
7:50 AM 35.6 °F 32.8 °F 28.4 °F 75% 30.04 in 6.2 mi NE 3.5 mph - N/A   Mostly Cloudy
8:00 AM 35 °F - 28 °F 66%  in 7 mi NE 3.5 mph - -   Partly Cloudy
8:50 AM 37.4 °F - 28.4 °F 70% 30.04 in 5.0 mi Variable 2.3 mph - N/A   Mostly Cloudy
9:50 AM 37.4 °F 32.8 °F 30.2 °F 75% 30.04 in 3.7 mi NW 5.8 mph - N/A   Mostly Cloudy
10:50 AM 39.2 °F 35.0 °F 30.2 °F 70% 30.04 in 5.0 mi NNW 5.8 mph - N/A   Mostly Cloudy
11:00 AM 39 °F - 30 °F 60%  in 5 mi NNW 5.8 mph - -   Mist
11:50 AM 39.2 °F 33.6 °F 30.2 °F 70% 30.01 in 5.0 mi NW 8.1 mph - N/A   Mostly Cloudy
12:50 PM 37.4 °F 32.8 °F 32.0 °F 81% 30.01 in 5.0 mi WNW 5.8 mph - N/A   Mostly Cloudy
1:50 PM 37.4 °F - 30.2 °F 75% 30.01 in 4.3 mi West 2.3 mph - N/A   Mostly Cloudy
2:00 PM 38 °F - 31 °F 66%  in 4 mi West 2.3 mph - -   Mist
2:50 PM 37.4 °F - 30.2 °F 75% 30.01 in 4.3 mi Variable 2.3 mph - N/A   Mostly Cloudy
3:50 PM 37.4 °F - 32.0 °F 81% 30.01 in 4.3 mi SW 2.3 mph - N/A   Mostly Cloudy
4:50 PM 35.6 °F - 32.0 °F 87% 30.01 in 4.3 mi Calm Calm - N/A   Mostly Cloudy
5:00 PM 35 °F - 31 °F 80%  in 4 mi Calm Calm - -   Mist
5:50 PM 35.6 °F 32.8 °F 32.0 °F 87% 30.01 in 4.3 mi SSW 3.5 mph - N/A   Mostly Cloudy
6:50 PM 33.8 °F 30.8 °F 32.0 °F 93% 30.01 in 2.5 mi East 3.5 mph - N/A   Mostly Cloudy
7:50 PM 33.8 °F 30.8 °F 30.2 °F 87% 30.01 in 3.7 mi SSW 3.5 mph - N/A   Mostly Cloudy
8:00 PM 33 °F - 30 °F 85%  in 4 mi SSW 3.5 mph - -   Mist
8:50 PM 33.8 °F 29.6 °F 30.2 °F 87% 30.01 in 3.7 mi East 4.6 mph - N/A   Mostly Cloudy
9:50 PM 33.8 °F - 30.2 °F 87% 30.01 in 3.7 mi Calm Calm - N/A   Mostly Cloudy
10:50 PM 32.0 °F 28.7 °F 30.2 °F 93% 29.98 in 3.7 mi NNE 3.5 mph - N/A   Mostly Cloudy
11:00 PM 32 °F - 29 °F 86%  in 4 mi NNE 3.5 mph - -   Mist
11:50 PM 35.6 °F 32.8 °F 32.0 °F 87% 30.01 in 3.7 mi NW 3.5 mph - N/A   Mostly Cloudy